H1 CPF 2 NER 2025 4 1 9 091 01 glonass146 H2 2216101 9146 54377 2025 4 1 0 0 0 2025 4 4 23 45 0 900 1 1 0 0 0 1 H9 10 0 60766 0.00000 0 -19923057.442 -11709952.698 -10750490.661 10 0 60766 900.00000 0 -18517650.310 -11175003.221 -13486013.363 10 0 60766 1800.00000 0 -16763082.959 -10677958.598 -15958965.459 10 0 60766 2700.00000 0 -14694414.686 -10269998.314 -18121254.114 10 0 60766 3600.00000 0 -12357763.147 -9995619.118 -19930864.964 10 0 60766 4500.00000 0 -9808582.386 -9890617.875 -21352678.259 10 0 60766 5400.00000 0 -7109560.183 -9980459.270 -22359147.388 10 0 60766 6300.00000 0 -4328222.805 -10279097.232 -22930827.116 10 0 60766 7200.00000 0 -1534347.199 -10788299.495 -23056742.093 10 0 60766 8100.00000 0 1202711.708 -11497503.210 -22734589.399 10 0 60766 9000.00000 0 3816667.828 -12384207.126 -21970772.132 10 0 60766 9900.00000 0 6246815.531 -13414883.196 -20780264.283 10 0 60766 10800.00000 0 8440302.782 -14546368.787 -19186310.234 10 0 60766 11700.00000 0 10354072.717 -15727680.594 -17219965.290 10 0 60766 12600.00000 0 11956394.539 -16902173.799 -14919486.524 10 0 60766 13500.00000 0 13227921.892 -18009955.727 -12329585.960 10 0 60766 14400.00000 0 14162236.522 -18990452.679 -9500560.650 10 0 60766 15300.00000 0 14765856.479 -19785022.249 -6487316.483 10 0 60766 16200.00000 0 15057710.420 -20339501.726 -3348304.566 10 0 60766 17100.00000 0 15068101.630 -20606585.721 -144390.650 10 0 60766 18000.00000 0 14837206.600 -20547933.289 3062320.674 10 0 60766 18900.00000 0 14413172.328 -20135916.320 6209684.396 10 0 60766 19800.00000 0 13849893.031 -19354935.741 9236713.244 10 0 60766 20700.00000 0 13204560.190 -18202250.167 12084752.676 10 0 60766 21600.00000 0 12535089.088 -16688281.879 14698610.413 10 0 60766 22500.00000 0 11897529.985 -14836386.624 17027619.210 10 0 60766 23400.00000 0 11343572.563 -12682095.922 19026612.862 10 0 60766 24300.00000 0 10918248.247 -10271862.343 20656797.228 10 0 60766 25200.00000 0 10657926.742 -7661358.574 21886499.997 10 0 60766 26100.00000 0 10588690.858 -4913399.557 22691785.146 10 0 60766 27000.00000 0 10725158.059 -2095572.383 23056920.507 10 0 60766 27900.00000 0 11069798.719 722329.263 22974689.385 10 0 60766 28800.00000 0 11612780.475 3470961.070 22446539.883 10 0 60766 29700.00000 0 12332346.359 6084065.603 21482568.442 10 0 60766 30600.00000 0 13195712.106 8500982.820 20101336.957 10 0 60766 31500.00000 0 14160446.324 10668929.999 18329525.914 10 0 60766 32400.00000 0 15176276.820 12544956.615 16201428.986 10 0 60766 33300.00000 0 16187248.158 14097492.845 13758297.650 10 0 60766 34200.00000 0 17134140.293 15307426.979 11047547.469 10 0 60766 35100.00000 0 17957046.594 16168666.521 8121840.660 10 0 60766 36000.00000 0 18598002.244 16688159.386 5038062.305 10 0 60766 36900.00000 0 19003551.265 16885374.331 1856210.188 10 0 60766 37800.00000 0 19127142.622 16791262.832 -1361779.708 10 0 60766 38700.00000 0 18931252.663 16446746.767 -4553248.360 10 0 60766 39600.00000 0 18389142.669 15900796.685 -7656044.684 10 0 60766 40500.00000 0 17486175.701 15208183.063 -10609747.045 10 0 60766 41400.00000 0 16220635.793 14426996.977 -13356850.277 10 0 60766 42300.00000 0 14604013.797 13616046.440 -15843893.830 10 0 60766 43200.00000 0 12660747.088 12832239.830 -18022508.225 10 0 60766 44100.00000 0 10427423.546 12128068.060 -19850358.892 10 0 60766 45000.00000 0 7951483.069 11549292.645 -21291968.819 10 0 60766 45900.00000 0 5289470.949 11132937.577 -22319404.261 10 0 60766 46800.00000 0 2504916.220 10905669.687 -22912810.711 10 0 60766 47700.00000 0 -334076.434 10882635.319 -23060789.485 10 0 60766 48600.00000 0 -3157420.965 11066801.615 -22760608.551 10 0 60766 49500.00000 0 -5895722.787 11448829.225 -22018244.446 10 0 60766 50400.00000 0 -8482919.585 12007480.835 -20848255.361 10 0 60766 51300.00000 0 -10858781.202 12710547.396 -19273488.619 10 0 60766 52200.00000 0 -12971165.902 13516252.273 -17324628.778 10 0 60766 53100.00000 0 -14777940.604 14375073.655 -15039595.549 10 0 60766 54000.00000 0 -16248486.785 15231908.104 -12462803.393 10 0 60766 54900.00000 0 -17364731.120 16028484.060 -9644297.243 10 0 60766 55800.00000 0 -18121659.608 16705923.620 -6638781.081 10 0 60766 56700.00000 0 -18527295.518 17207344.938 -3504558.124 10 0 60766 57600.00000 0 -18602143.691 17480395.856 -302402.991 10 0 60766 58500.00000 0 -18378125.888 17479612.321 2905612.412 10 0 60766 59400.00000 0 -17897052.938 17168502.396 6057316.787 10 0 60766 60300.00000 0 -17208698.719 16521268.279 9091638.173 10 0 60766 61200.00000 0 -16368557.427 15524093.926 11949780.619 10 0 60766 62100.00000 0 -15435378.476 14175943.693 14576356.465 10 0 60766 63000.00000 0 -14468582.541 12488837.902 16920452.860 10 0 60766 63900.00000 0 -13525667.019 10487592.812 18936612.456 10 0 60766 64800.00000 0 -12659709.411 8209034.628 20585709.955 10 0 60766 65700.00000 0 -11917072.988 5700718.788 21835708.144 10 0 60766 66600.00000 0 -11335410.626 3019206.212 22662279.258 10 0 60766 67500.00000 0 -10942050.340 227966.355 23049279.956 10 0 60766 68400.00000 0 -10752830.268 -2605007.623 22989070.728 10 0 60766 69300.00000 0 -10771432.279 -5409774.271 22482673.264 10 0 60766 70200.00000 0 -10989242.809 -8117104.449 21539762.132 10 0 60766 71100.00000 0 -11385747.568 -10661117.910 20178490.020 10 0 60766 72000.00000 0 -11929444.609 -12981787.165 18425148.789 10 0 60766 72900.00000 0 -12579238.341 -15027205.018 16313671.686 10 0 60766 73800.00000 0 -13286256.793 -16755521.517 13884985.091 10 0 60766 74700.00000 0 -13996016.194 -18136469.379 11186221.323 10 0 60766 75600.00000 0 -14650841.888 -19152413.875 8269806.939 10 0 60766 76500.00000 0 -15192443.217 -19798882.901 5192443.813 10 0 60766 77400.00000 0 -15564532.942 -20084554.785 2014002.782 10 0 60766 78300.00000 0 -15715379.392 -20030704.342 -1203648.171 10 0 60766 79200.00000 0 -15600182.015 -19670130.820 -4397857.587 10 0 60766 80100.00000 0 -15183168.224 -19045613.562 -7506421.277 10 0 60766 81000.00000 0 -14439321.232 -18207961.536 -10468804.880 10 0 60766 81900.00000 0 -13355664.263 -17213740.240 -13227333.139 10 0 60766 82800.00000 0 -11932045.581 -16122773.352 -15728321.507 10 0 60766 83700.00000 0 -10181390.134 -14995525.879 -17923127.152 10 0 60766 84600.00000 0 -8129406.425 -13890480.429 -19769098.330 10 0 60766 85500.00000 0 -5813760.453 -12861618.104 -21230403.425 10 0 60767 0.00000 0 -3282751.321 -11956110.753 -22278723.696 10 0 60767 900.00000 0 -593542.420 -11212321.301 -22893797.239 10 0 60767 1800.00000 0 2189974.563 -10658197.109 -23063803.080 10 0 60767 2700.00000 0 4999598.349 -10310121.503 -22785580.700 10 0 60767 3600.00000 0 7765415.701 -10172271.899 -22064680.201 10 0 60767 4500.00000 0 10418471.637 -10236509.752 -20915243.642 10 0 60767 5400.00000 0 12893401.675 -10482805.691 -19359720.519 10 0 60767 6300.00000 0 15130917.610 -10880180.725 -17428423.465 10 0 60767 7200.00000 0 17080044.578 -11388122.854 -15158933.223 10 0 60767 8100.00000 0 18700017.707 -11958418.590 -12595364.653 10 0 60767 9000.00000 0 19961760.809 -12537321.649 -9787508.097 10 0 60767 9900.00000 0 20848887.102 -13067967.136 -6789862.743 10 0 60767 10800.00000 0 21358181.763 -13492929.340 -3660580.665 10 0 60767 11700.00000 0 21499547.631 -13756815.337 -460341.832 10 0 60767 12600.00000 0 21295417.653 -13808785.174 2748818.238 10 0 60767 13500.00000 0 20779659.851 -13604892.473 5904705.685 10 0 60767 14400.00000 0 19996021.633 -13110147.033 8946167.491 10 0 60767 15300.00000 0 18996179.234 -12300212.418 11814269.712 10 0 60767 16200.00000 0 17837474.425 -11162666.908 14453432.411 10 0 60767 17100.00000 0 16580433.341 -9697774.262 16812499.852 10 0 60767 18000.00000 0 15286171.240 -7918731.023 18845725.850 10 0 60767 18900.00000 0 14013791.521 -5851378.837 20513655.803 10 0 60767 19800.00000 0 12817887.416 -3533392.244 21783889.002 10 0 60767 20700.00000 0 11746250.441 -1012974.071 22631706.892 10 0 60767 21600.00000 0 10837881.080 1652889.188 23040555.463 10 0 60767 22500.00000 0 10121384.648 4400541.450 23002372.458 10 0 60767 23400.00000 0 9613819.454 7162054.602 22517752.798 10 0 60767 24300.00000 0 9320045.665 9867811.724 21595948.429 10 0 60767 25200.00000 0 9232602.575 12449170.113 20254701.709 10 0 60767 26100.00000 0 9332120.040 14841094.490 18519914.433 10 0 60767 27000.00000 0 9588247.494 16984651.528 16425157.692 10 0 60767 27900.00000 0 9961062.126 18829262.072 14011030.789 10 0 60767 28800.00000 0 10402897.462 20334616.977 11324380.591 10 0 60767 29700.00000 0 10860515.446 21472176.144 8417395.615 10 0 60767 30600.00000 0 11277530.224 22226187.533 5346591.979 10 0 60767 31500.00000 0 11596980.596 22594182.898 2171710.912 10 0 60767 32400.00000 0 11763941.400 22586929.143 -1045450.308 10 0 60767 33300.00000 0 11728061.970 22227837.247 -4242250.484 10 0 60767 34200.00000 0 11445922.635 21551853.974 -7356434.941 10 0 60767 35100.00000 0 10883107.865 20603883.683 -10327359.039 10 0 60767 36000.00000 0 10015906.661 19436807.744 -13097179.686 10 0 60767 36900.00000 0 8832566.792 18109186.238 -15611990.364 10 0 60767 37800.00000 0 7334048.657 16682740.066 -17822876.687 10 0 60767 38700.00000 0 5534245.922 15219720.732 -19686871.330 10 0 60767 39600.00000 0 3459662.968 13780279.514 -21167789.487 10 0 60767 40500.00000 0 1148562.173 12419947.287 -22236928.825 10 0 60767 41400.00000 0 -1350383.517 11187331.131 -22873620.768 10 0 60767 42300.00000 0 -3979876.533 10122124.148 -23065623.198 10 0 60767 43200.00000 0 -6676144.727 9253511.307 -22809347.811 10 0 60767 44100.00000 0 -9371366.107 8599037.027 -22109918.683 10 0 60767 45000.00000 0 -11996267.571 8163980.605 -20981061.820 10 0 60767 45900.00000 0 -14482790.035 7941264.075 -19444828.590 10 0 60767 46800.00000 0 -16766709.776 7911894.749 -17531159.021 10 0 60767 47700.00000 0 -18790107.825 8045922.309 -15277293.855 10 0 60767 48600.00000 0 -20503585.682 8303868.847 -12727047.017 10 0 60767 49500.00000 0 -21868136.343 8638570.630 -9929952.668 10 0 60767 50400.00000 0 -22856593.894 8997353.203 -6940303.417 10 0 60767 51300.00000 0 -23454602.489 9324447.647 -3816098.244 10 0 60767 52200.00000 0 -23661065.685 9563545.904 -617920.359 10 0 60767 53100.00000 0 -23488058.379 9660387.262 2592233.351 10 0 60767 54000.00000 0 -22960206.053 9565266.843 5752148.874 10 0 60767 54900.00000 0 -22113558.293 9235360.459 8800594.698 10 0 60767 55800.00000 0 -20994004.273 8636767.796 11678501.587 10 0 60767 56700.00000 0 -19655296.908 7746187.733 14330100.121 10 0 60767 57600.00000 0 -18156768.343 6552154.835 16703994.518 10 0 60767 58500.00000 0 -16560832.235 5055784.402 18754152.527 10 0 60767 59400.00000 0 -14930376.843 3270993.721 20440792.900 10 0 60767 60300.00000 0 -13326157.334 1224188.850 21731153.864 10 0 60767 61200.00000 0 -11804295.617 -1046571.711 22600128.212 10 0 60767 62100.00000 0 -10413991.506 -3492903.522 23030753.059 10 0 60767 63000.00000 0 -9195540.251 -6057859.736 23014544.808 10 0 60767 63900.00000 0 -8178738.889 -8678060.297 22551672.613 10 0 60767 64800.00000 0 -7381747.851 -11286100.210 21650966.379 10 0 60767 65700.00000 0 -6810455.473 -13813138.426 20329758.286 10 0 60767 66600.00000 0 -6458372.289 -16191560.891 18613559.788 10 0 60767 67500.00000 0 -6307059.874 -18357607.810 16535579.121 10 0 60767 68400.00000 0 -6327076.654 -20253856.023 14136087.414 10 0 60767 69300.00000 0 -6479401.208 -21831452.849 11461644.617 10 0 60767 70200.00000 0 -6717273.245 -23052007.645 8564199.402 10 0 60767 71100.00000 0 -6988374.401 -23889061.283 5500080.038 10 0 60767 72000.00000 0 -7237256.212 -24329071.175 2328895.818 10 0 60767 72900.00000 0 -7407911.678 -24371869.844 -887629.249 10 0 60767 73800.00000 0 -7446380.301 -24030577.318 -4086866.982 10 0 60767 74700.00000 0 -7303274.788 -23330970.899 -7206515.152 10 0 60767 75600.00000 0 -6936120.728 -22310339.060 -10185821.951 10 0 60767 76500.00000 0 -6311408.471 -21015868.388 -12966779.661 10 0 60767 77400.00000 0 -5406268.810 -19502632.356 -15495263.065 10 0 60767 78300.00000 0 -4209700.191 -17831267.731 -17722089.453 10 0 60767 79200.00000 0 -2723294.517 -16065437.456 -19603979.003 10 0 60767 80100.00000 0 -961430.044 -14269187.664 -21104396.558 10 0 60767 81000.00000 0 1049077.347 -12504310.574 -22194258.600 10 0 60767 81900.00000 0 3269850.299 -10827824.180 -22852492.145 10 0 60767 82800.00000 0 5652317.080 -9289674.338 -23066435.423 10 0 60767 83700.00000 0 8139512.651 -7930754.829 -22832073.481 10 0 60767 84600.00000 0 10668238.690 -6781327.261 -22154105.057 10 0 60767 85500.00000 0 13171492.704 -5859905.515 -21045840.337 10 0 60768 0.00000 0 15581065.159 -5172649.770 -19528932.520 10 0 60768 900.00000 0 17830198.261 -4713293.295 -17632948.114 10 0 60768 1800.00000 0 19856193.083 -4463604.078 -15394786.875 10 0 60768 2700.00000 0 21602861.559 -4394358.936 -12857960.192 10 0 60768 3600.00000 0 23022718.866 -4466788.599 -10071743.945 10 0 60768 4500.00000 0 24078827.043 -4634431.305 -7090221.569 10 0 60768 5400.00000 0 24746213.876 -4845316.004 -3971235.900 10 0 60768 6300.00000 0 25012808.784 -5044382.528 -775269.999 10 0 60768 7200.00000 0 24879857.500 -5176036.275 2435721.534 10 0 60768 8100.00000 0 24361799.210 -5186729.516 5599508.287 10 0 60768 9000.00000 0 23485611.929 -5027460.359 8654783.976 10 0 60768 9900.00000 0 22289653.997 -4656083.984 11542347.640 10 0 60768 10800.00000 0 20822050.474 -4039338.721 14206243.691 10 0 60768 11700.00000 0 19138691.783 -3154501.312 16594839.283 10 0 60768 12600.00000 0 17300928.043 -1990601.278 18661818.729 10 0 60768 13500.00000 0 15373054.894 -549142.531 20367076.348 10 0 60768 14400.00000 0 13419695.068 1155699.239 21677491.115 10 0 60768 15300.00000 0 11503184.207 3097413.207 22567568.565 10 0 60768 16200.00000 0 9681069.095 5238011.848 23019937.889 10 0 60768 17100.00000 0 8003821.874 7529377.435 23025694.659 10 0 60768 18000.00000 0 6512864.900 9915042.530 22584582.301 10 0 60768 18900.00000 0 5238988.197 12332332.389 21705008.266 10 0 60768 19800.00000 0 4201225.285 14714781.904 20403893.688 10 0 60768 20700.00000 0 3406234.333 16994727.902 18706358.396 10 0 60768 21600.00000 0 2848210.630 19105969.849 16645246.113 10 0 60768 22500.00000 0 2509334.189 20986388.559 14260497.804 10 0 60768 23400.00000 0 2360733.862 22580413.617 11598384.224 10 0 60768 24300.00000 0 2363927.410 23841235.939 8710611.692 10 0 60768 25200.00000 0 2472676.639 24732672.169 5653317.932 10 0 60768 26100.00000 0 2635178.779 25230601.732 2485977.440 10 0 60768 27000.00000 0 2796500.627 25323915.323 -729761.970 10 0 60768 27900.00000 0 2901151.291 25014934.117 -3931288.088 10 0 60768 28800.00000 0 2895683.121 24319281.506 -7056254.022 10 0 60768 29700.00000 0 2731209.049 23265212.561 -10043803.533 10 0 60768 30600.00000 0 2365727.989 21892429.620 -12835766.835 10 0 60768 31500.00000 0 1766158.233 20250434.377 -15377802.311 10 0 60768 32400.00000 0 909991.334 18396486.588 -17620460.970 10 0 60768 33300.00000 0 -213504.664 16393256.114 -19520152.281 10 0 60768 34200.00000 0 -1602584.366 14306267.820 -21039992.276 10 0 60768 35100.00000 0 -3242856.777 12201247.269 -22150517.554 10 0 60768 36000.00000 0 -5107657.196 10141478.819 -22830251.774 10 0 60768 36900.00000 0 -7158943.909 8185286.781 -23066114.310 10 0 60768 37800.00000 0 -9348682.276 6383744.513 -22853664.043 10 0 60768 38700.00000 0 -11620658.447 4778706.279 -22197174.499 10 0 60768 39600.00000 0 -13912647.032 3401242.775 -21109539.780 10 0 60768 40500.00000 0 -16158842.490 2270543.989 -19612013.940 10 0 60768 41400.00000 0 -18292453.130 1393333.304 -17733789.447 10 0 60768 42300.00000 0 -20248349.995 763815.326 -15511423.417 10 0 60768 43200.00000 0 -21965660.720 364157.549 -12988122.989 10 0 60768 44100.00000 0 -23390200.884 165483.788 -10212903.835 10 0 60768 45000.00000 0 -24476642.054 129335.987 -7239638.121 10 0 60768 45900.00000 0 -25190326.924 209541.586 -4126010.345 10 0 60768 46800.00000 0 -25508656.456 354406.810 -932401.105 10 0 60768 47700.00000 0 -25421991.825 509142.814 2279279.659 10 0 60768 48600.00000 0 -24934033.998 618421.917 5446787.600 10 0 60768 49500.00000 0 -24061665.651 628955.929 8508744.212 10 0 60768 50400.00000 0 -22834262.549 491987.849 11405819.416 10 0 60768 51300.00000 0 -21292503.129 165591.791 14081874.073 10 0 60768 52200.00000 0 -19486725.944 -383315.828 16485040.850 10 0 60768 53100.00000 0 -17474903.219 -1177338.777 18568723.065 10 0 60768 54000.00000 0 -15320314.459 -2227406.585 20292492.850 10 0 60768 54900.00000 0 -13089016.335 -3532074.246 21622871.885 10 0 60768 55800.00000 0 -10847213.348 -5077346.645 22533980.070 10 0 60768 56700.00000 0 -8658637.791 -6837036.684 23008039.930 10 0 60768 57600.00000 0 -6582047.097 -8773643.992 23035727.084 10 0 60768 58500.00000 0 -4668941.927 -10839719.552 22616359.746 10 0 60768 59400.00000 0 -2961599.306 -12979661.382 21757923.063 10 0 60768 60300.00000 0 -1491502.272 -15131868.288 20476926.958 10 0 60768 61200.00000 0 -278231.272 -17231163.495 18798099.139 10 0 60768 62100.00000 0 671136.513 -19211388.279 16753918.008 10 0 60768 63000.00000 0 1362094.773 -21008058.045 14383993.254 10 0 60768 63900.00000 0 1812239.740 -22560970.045 11734305.040 10 0 60768 64800.00000 0 2050285.648 -23816653.305 8856315.653 10 0 60768 65700.00000 0 2114605.644 -24730557.419 5805970.346 10 0 60768 66600.00000 0 2051360.133 -25268887.313 2642606.684 10 0 60768 67500.00000 0 1912292.398 -25410005.784 -572206.048 10 0 60768 68400.00000 0 1752285.787 -25145343.677 -3775874.098 10 0 60768 69300.00000 0 1626787.247 -24479778.460 -6906008.556 10 0 60768 70200.00000 0 1589207.879 -23431464.590 -9901651.533 10 0 60768 71100.00000 0 1688412.310 -22031122.545 -12704474.047 10 0 60768 72000.00000 0 1966404.806 -20320816.510 -15259921.010 10 0 60768 72900.00000 0 2456311.588 -18352272.564 -17518280.056 10 0 60768 73800.00000 0 3180745.930 -16184808.657 -19435652.732 10 0 60768 74700.00000 0 4150626.085 -13882963.999 -20974808.825 10 0 60768 75600.00000 0 5364496.588 -11513927.909 -22105907.323 10 0 60768 76500.00000 0 6808381.967 -9144876.177 -22807070.418 10 0 60768 77400.00000 0 8456179.229 -6840326.509 -23064800.103 10 0 60768 78300.00000 0 10270572.708 -4659623.176 -22874230.139 10 0 60768 79200.00000 0 12204432.974 -2654655.140 -22239209.463 10 0 60768 80100.00000 0 14202641.198 -867901.676 -21172216.319 10 0 60768 81000.00000 0 16204262.729 669114.558 -19694105.582 10 0 60768 81900.00000 0 18144979.213 1936904.340 -17833694.827 10 0 60768 82800.00000 0 19959677.839 2928575.694 -15627197.653 10 0 60768 83700.00000 0 21585089.946 3649863.288 -13117515.532 10 0 60768 84600.00000 0 22962369.164 4118624.286 -10353402.048 10 0 60768 85500.00000 0 24039501.942 4363823.766 -7388515.794 10 0 60769 0.00000 0 24773450.237 4424053.957 -4280380.499 10 0 60769 900.00000 0 25131937.650 4345650.906 -1089270.719 10 0 60769 1800.00000 0 25094803.944 4180488.835 2122951.259 10 0 60769 2700.00000 0 24654873.015 3983545.852 5294030.536 10 0 60769 3600.00000 0 23818297.330 3810343.911 8362519.751 10 0 60769 4500.00000 0 22604365.050 3714371.171 11268962.982 10 0 60769 5400.00000 0 21044777.822 3744595.371 13957040.646 10 0 60769 6300.00000 0 19182429.122 3943172.998 16374653.778 10 0 60769 7200.00000 0 17069733.586 4343450.794 18474927.284 10 0 60769 8100.00000 0 14766576.335 4968343.910 20217113.390 10 0 60769 9000.00000 0 12337966.759 5829159.420 21567378.449 10 0 60769 9900.00000 0 9851493.395 6924915.431 22499458.339 10 0 60769 10800.00000 0 7374684.619 8242185.570 22995170.162 10 0 60769 11700.00000 0 4972383.722 9755476.925 23044770.411 10 0 60769 12600.00000 0 2704246.480 11428127.413 22647152.468 10 0 60769 13500.00000 0 622464.352 13213686.997 21809879.085 10 0 60769 14400.00000 0 -1230192.679 15057726.957 20549048.383 10 0 60769 15300.00000 0 -2821932.552 16900003.301 18888994.890 10 0 60769 16200.00000 0 -4133032.253 18676885.310 16861830.191 10 0 60769 17100.00000 0 -5156418.131 20323948.585 14506830.815 10 0 60769 18000.00000 0 -5897711.165 21778624.459 11869684.118 10 0 60769 18900.00000 0 -6374735.339 22982794.624 9001605.887 10 0 60769 19800.00000 0 -6616509.975 23885221.520 5958346.223 10 0 60769 20700.00000 0 -6661768.837 24443711.362 2799102.925 10 0 60769 21600.00000 0 -6557069.185 24626917.605 -414636.196 10 0 60769 22500.00000 0 -6354571.607 24415707.596 -3620298.849 10 0 60769 23400.00000 0 -6109585.831 23804033.581 -6755457.092 10 0 60769 24300.00000 0 -5877987.869 22799270.353 -9759054.293 10 0 60769 25200.00000 0 -5713619.470 21422004.563 -12572605.025 10 0 60769 26100.00000 0 -5665781.624 19705284.237 -15141343.272 10 0 60769 27000.00000 0 -5776929.687 17693360.053 -17415295.573 10 0 60769 27900.00000 0 -6080668.917 15439971.524 -19350257.561 10 0 60769 28800.00000 0 -6600136.103 13006250.519 -20908654.493 10 0 60769 29700.00000 0 -7346836.274 10458330.444 -22060269.159 10 0 60769 30600.00000 0 -8319983.904 7864761.537 -22782823.392 10 0 60769 31500.00000 0 -9506376.437 5293840.473 -23062402.572 10 0 60769 32400.00000 0 -10880805.390 2810965.596 -22893715.746 10 0 60769 33300.00000 0 -12406987.588 476127.441 -22280187.268 10 0 60769 34200.00000 0 -14038977.242 -1658361.778 -21233879.090 10 0 60769 35100.00000 0 -15722999.537 -3549806.542 -19775246.051 10 0 60769 36000.00000 0 -17399628.871 -5166655.213 -17932729.559 10 0 60769 36900.00000 0 -19006220.551 -6489554.337 -15742198.048 10 0 60769 37800.00000 0 -20479494.330 -7511888.169 -13246245.365 10 0 60769 38700.00000 0 -21758161.926 -8239783.112 -10493360.832 10 0 60769 39600.00000 0 -22785488.880 -8691578.911 -7536987.136 10 0 60769 40500.00000 0 -23511683.811 -8896790.678 -4434484.232 10 0 60769 41400.00000 0 -23896015.627 -8894606.977 -1246019.245 10 0 60769 42300.00000 0 -23908570.204 -8731988.303 1966596.292 10 0 60769 43200.00000 0 -23531573.241 -8461446.933 5141099.515 10 0 60769 44100.00000 0 -22760224.218 -8138602.239 8215976.841 10 0 60769 45000.00000 0 -21603006.532 -7819614.738 11131649.129 10 0 60769 45900.00000 0 -20081460.697 -7558607.032 13831618.917 10 0 60769 46800.00000 0 -18229429.597 -7405180.189 16263558.071 10 0 60769 47700.00000 0 -16091806.698 -7402130.055 18380315.358 10 0 60769 48600.00000 0 -13722838.527 -7583459.546 20140825.117 10 0 60769 49500.00000 0 -11184051.019 -7972770.668 21510900.053 10 0 60769 50400.00000 0 -8541884.800 -8582104.260 22463893.352 10 0 60769 51300.00000 0 -5865136.366 -9411276.908 22981217.627 10 0 60769 52200.00000 0 -3222310.112 -10447744.002 23052710.805 10 0 60769 53100.00000 0 -678989.957 -11666996.065 22676841.636 10 0 60769 54000.00000 0 1704661.359 -13033473.441 21860750.348 10 0 60769 54900.00000 0 3876172.309 -14501962.779 20620122.844 10 0 60769 55800.00000 0 5792708.106 -16019418.547 18978899.779 10 0 60769 56700.00000 0 7422611.119 -17527134.718 16968824.954 10 0 60769 57600.00000 0 8746472.091 -18963176.780 14628840.504 10 0 60769 58500.00000 0 9757687.430 -20264972.636 12004339.461 10 0 60769 59400.00000 0 10462479.272 -21371953.764 9146289.306 10 0 60769 60300.00000 0 10879377.554 -22228135.206 6110242.911 10 0 60769 61200.00000 0 11038186.147 -22784524.947 2955255.988 10 0 60769 62100.00000 0 10978477.131 -23001259.998 -257267.637 10 0 60769 63000.00000 0 10747677.576 -22849377.722 -3464779.793 10 0 60769 63900.00000 0 10398830.775 -22312146.258 -6604816.255 10 0 60769 64800.00000 0 9988127.992 -21385896.561 -9616224.438 10 0 60769 65700.00000 0 9572316.683 -20080319.915 -12440365.268 10 0 60769 66600.00000 0 9206096.456 -18418217.549 -15022264.542 10 0 60769 67500.00000 0 8939614.443 -16434712.518 -17311690.346 10 0 60769 68400.00000 0 8816167.280 -14175956.832 -19264134.854 10 0 60769 69300.00000 0 8870207.826 -11697388.282 -20841680.998 10 0 60769 70200.00000 0 9125741.385 -9061610.296 -22013737.242 10 0 60769 71100.00000 0 9595179.392 -6335983.805 -22757626.548 10 0 60769 72000.00000 0 10278698.825 -3590031.902 -23059018.743 10 0 60769 72900.00000 0 11164134.019 -892765.512 -22912198.793 10 0 60769 73800.00000 0 12227405.027 1689958.938 -22320166.680 10 0 60769 74700.00000 0 13433464.043 4097940.508 -21294567.883 10 0 60769 75600.00000 0 14737719.671 6278890.481 -19855456.658 10 0 60769 76500.00000 0 16087878.951 8190352.393 -18030897.343 10 0 60769 77400.00000 0 17426129.585 9801207.177 -15856411.968 10 0 60769 78300.00000 0 18691570.763 11092702.650 -13374285.179 10 0 60769 79200.00000 0 19822790.699 12058966.527 -10632740.117 10 0 60769 80100.00000 0 20760482.857 12706983.550 -7685001.314 10 0 60769 81000.00000 0 21449991.499 13056039.754 -4588262.699 10 0 60769 81900.00000 0 21843679.966 13136658.871 -1402580.629 10 0 60769 82800.00000 0 21903022.557 12989076.961 1810286.785 10 0 60769 83700.00000 0 21600332.611 12661320.581 4988071.729 10 0 60769 84600.00000 0 20920054.242 12206970.010 8069197.379 10 0 60769 85500.00000 0 19859563.635 11682702.199 10993964.263 99